| time (UTC) | temp C | wind direction | speed KPH | gust KPH | rain 1hr cm | rain 24hr cm | rain mn cm | humidity % | barometer mb |
| 20260906161555 | 32 | 243 | 1.6 | 4.8 | 0.00 | 0.00 | 0.00 | 68 | 1013.0 |
| 20260906161055 | 32 | 283 | 3.2 | 6.4 | 0.00 | 0.00 | 0.00 | 69 | 1013.1 |
| 20260906160555 | 31 | 87 | 0.0 | 3.2 | 0.00 | 0.00 | 0.00 | 73 | 1013.1 |
| 20260906160055 | 31 | 242 | 0.0 | 0.0 | 0.00 | 0.00 | 0.00 | 72 | 1013.1 |
| 20260906155555 | 31 | 82 | 1.6 | 3.2 | 0.00 | 0.00 | 0.00 | 75 | 1013.2 |
| 20260906155056 | 31 | 123 | 0.0 | 3.2 | 0.00 | 0.00 | 0.00 | 75 | 1013.3 |
| 20260906154555 | 31 | 275 | 1.6 | 4.8 | 0.00 | 0.00 | 0.00 | 77 | 1013.3 |
| 20260906154055 | 31 | 360 | 0.0 | 0.0 | 0.00 | 0.00 | 0.00 | 76 | 1013.3 |
| 20260906153555 | 31 | 234 | 4.8 | 6.4 | 0.00 | 0.00 | 0.00 | 76 | 1013.3 |
| 20260906153057 | 31 | 187 | 0.0 | 1.6 | 0.00 | 0.00 | 0.00 | 74 | 1013.2 |
| 20260906152114 | 31 | 255 | 3.2 | 4.8 | 0.00 | 0.00 | 0.00 | 77 | 1013.3 |
| 20260906151556 | 31 | 204 | 3.2 | 6.4 | 0.00 | 0.00 | 0.00 | 81 | 1013.4 |
| 20260906151055 | 31 | 264 | 1.6 | 4.8 | 0.00 | 0.00 | 0.00 | 81 | 1013.4 |
| 20260906150556 | 31 | 212 | 3.2 | 6.4 | 0.00 | 0.00 | 0.00 | 81 | 1013.4 |
| 20260906150056 | 31 | 113 | 0.0 | 3.2 | 0.00 | 0.00 | 0.00 | 80 | 1013.5 |
| 20260906145557 | 30 | 143 | 1.6 | 4.8 | 0.00 | 0.00 | 0.00 | 81 | 1013.5 |
| 20260906145056 | 30 | 289 | 0.0 | 1.6 | 0.00 | 0.00 | 0.00 | 82 | 1013.5 |
| 20260906144556 | 30 | 9 | 1.6 | 3.2 | 0.00 | 0.00 | 0.00 | 80 | 1013.4 |
| 20260906144055 | 30 | 264 | 1.6 | 4.8 | 0.00 | 0.00 | 0.00 | 83 | 1013.4 |
| 20260906143558 | 29 | 110 | 0.0 | 3.2 | 0.00 | 0.00 | 0.00 | 85 | 1013.4 |
| 20260906143055 | 29 | 94 | 1.6 | 3.2 | 0.00 | 0.00 | 0.00 | 85 | 1013.5 |
| 20260906142556 | 29 | 87 | 3.2 | 3.2 | 0.00 | 0.00 | 0.00 | 84 | 1013.5 |
| 20260906142055 | 28 | 237 | 0.0 | 0.0 | 0.00 | 0.00 | 0.00 | 87 | 1013.5 |
| 20260906141557 | 28 | 222 | 1.6 | 3.2 | 0.00 | 0.00 | 0.00 | 88 | 1013.5 |
| 20260906141055 | 28 | 243 | 3.2 | 6.4 | 0.00 | 0.00 | 0.00 | 88 | 1013.6 |
| 20260906140555 | 28 | 63 | 1.6 | 3.2 | 0.00 | 0.00 | 0.00 | 88 | 1013.6 |
| 20260906140055 | 27 | 214 | 3.2 | 4.8 | 0.00 | 0.00 | 0.00 | 91 | 1013.6 |
| 20260906135555 | 27 | 209 | 1.6 | 3.2 | 0.00 | 0.00 | 0.00 | 92 | 1013.6 |
| 20260906135104 | 27 | 233 | 3.2 | 4.8 | 0.00 | 0.00 | 0.00 | 91 | 1013.6 |
| 20260906134555 | 27 | 60 | 0.0 | 1.6 | 0.00 | 0.00 | 0.00 | 92 | 1013.6 |
| 20260906134057 | 26 | 360 | 0.0 | 0.0 | 0.00 | 0.00 | 0.00 | 94 | 1013.6 |
| 20260906133555 | 26 | 134 | 1.6 | 1.6 | 0.00 | 0.00 | 0.00 | 94 | 1013.6 |
| 20260906133055 | 26 | 270 | 0.0 | 0.0 | 0.00 | 0.00 | 0.00 | 95 | 1013.6 |
| 20260906132556 | 26 | 205 | 3.2 | 4.8 | 0.00 | 0.00 | 0.00 | 95 | 1013.6 |
| 20260906132055 | 26 | 204 | 1.6 | 3.2 | 0.00 | 0.00 | 0.00 | 96 | 1013.6 |
| 20260906131556 | 25 | 247 | 3.2 | 4.8 | 0.00 | 0.00 | 0.00 | 96 | 1013.6 |
| 20260906131056 | 25 | 193 | 3.2 | 3.2 | 0.00 | 0.00 | 0.00 | 97 | 1013.6 |
| 20260906130555 | 25 | 204 | 0.0 | 1.6 | 0.00 | 0.00 | 0.00 | 99 | 1013.5 |
| 20260906130055 | 25 | 95 | 0.0 | 0.0 | 0.00 | 0.00 | 0.00 | 100 | 1013.4 |
| 20260906125556 | 24 | 360 | 0.0 | 0.0 | 0.00 | 0.00 | 0.00 | 100 | 1013.3 |
| 20260906125056 | 24 | 145 | 1.6 | 3.2 | 0.00 | 0.00 | 0.00 | 100 | 1013.3 |
| 20260906124555 | 23 | 360 | 0.0 | 0.0 | 0.00 | 0.00 | 0.00 | 100 | 1013.4 |
| 20260906124055 | 23 | 360 | 0.0 | 0.0 | 0.00 | 0.00 | 0.00 | 100 | 1013.4 |
| 20260906123555 | 23 | 136 | 0.0 | 0.0 | 0.00 | 0.00 | 0.00 | 99 | 1013.3 |
| 20260906123055 | 23 | 221 | 0.0 | 1.6 | 0.00 | 0.00 | 0.00 | 99 | 1013.3 |
| 20260906122555 | 23 | 140 | 0.0 | 1.6 | 0.00 | 0.00 | 0.00 | 99 | 1013.3 |
| 20260906122056 | 23 | 59 | 0.0 | 0.0 | 0.00 | 0.00 | 0.00 | 99 | 1013.3 |
| 20260906121557 | 23 | 360 | 0.0 | 0.0 | 0.00 | 0.00 | 0.00 | 99 | 1013.2 |
| 20260906121055 | 23 | 360 | 0.0 | 0.0 | 0.00 | 0.00 | 0.00 | 99 | 1013.2 |
| 20260906120555 | 22 | 360 | 0.0 | 0.0 | 0.00 | 0.00 | 0.00 | 99 | 1013.1 |
| 20260906120057 | 22 | 360 | 0.0 | 0.0 | 0.00 | 0.00 | 0.00 | 99 | 1013.1 |
| 20260906115555 | 22 | 188 | 1.6 | 3.2 | 0.00 | 0.00 | 0.00 | 99 | 1013.2 |
| 20260906115057 | 22 | 360 | 0.0 | 0.0 | 0.00 | 0.00 | 0.00 | 99 | 1013.1 |
| 20260906114555 | 22 | 360 | 0.0 | 0.0 | 0.00 | 0.00 | 0.00 | 99 | 1013.0 |
| 20260906114055 | 22 | 177 | 1.6 | 3.2 | 0.00 | 0.00 | 0.00 | 99 | 1012.9 |
| 20260906113555 | 22 | 360 | 0.0 | 0.0 | 0.00 | 0.00 | 0.00 | 99 | 1012.9 |
| 20260906113056 | 22 | 360 | 0.0 | 0.0 | 0.00 | 0.00 | 0.00 | 99 | 1012.9 |
| 20260906112555 | 22 | 360 | 0.0 | 0.0 | 0.00 | 0.00 | 0.00 | 99 | 1013.0 |
| 20260906112058 | 22 | 360 | 0.0 | 0.0 | 0.00 | 0.00 | 0.00 | 99 | 1012.9 |
| 20260906111555 | 22 | 360 | 0.0 | 0.0 | 0.00 | 0.00 | 0.00 | 99 | 1012.9 |
| 20260906111055 | 22 | 360 | 0.0 | 0.0 | 0.00 | 0.00 | 0.00 | 99 | 1012.9 |
| 20260906110556 | 22 | 360 | 0.0 | 0.0 | 0.00 | 0.00 | 0.00 | 99 | 1012.9 |
| 20260906110055 | 22 | 360 | 0.0 | 0.0 | 0.00 | 0.00 | 0.00 | 99 | 1012.9 |
| 20260906105555 | 22 | 360 | 0.0 | 0.0 | 0.00 | 0.00 | 0.00 | 99 | 1012.8 |
| 20260906105056 | 22 | 360 | 0.0 | 0.0 | 0.00 | 0.00 | 0.00 | 99 | 1012.8 |
| 20260906104556 | 22 | 360 | 0.0 | 0.0 | 0.00 | 0.00 | 0.00 | 99 | 1012.6 |
| 20260906104057 | 22 | 199 | 0.0 | 0.0 | 0.00 | 0.00 | 0.00 | 99 | 1012.5 |
| 20260906103555 | 22 | 360 | 0.0 | 0.0 | 0.00 | 0.00 | 0.00 | 99 | 1012.6 |
| 20260906103055 | 22 | 360 | 0.0 | 0.0 | 0.00 | 0.00 | 0.00 | 99 | 1012.6 |
| 20260906102555 | 22 | 153 | 1.6 | 3.2 | 0.00 | 0.00 | 0.00 | 99 | 1012.5 |
| 20260906102055 | 22 | 360 | 0.0 | 0.0 | 0.00 | 0.00 | 0.00 | 99 | 1012.4 |
| 20260906101555 | 22 | 360 | 0.0 | 0.0 | 0.00 | 0.00 | 0.00 | 99 | 1012.4 |
| 20260906101055 | 22 | 360 | 0.0 | 0.0 | 0.00 | 0.00 | 0.00 | 99 | 1012.4 |
| 20260906100555 | 22 | 360 | 0.0 | 0.0 | 0.00 | 0.00 | 0.00 | 99 | 1012.2 |
| 20260906100055 | 22 | 160 | 1.6 | 3.2 | 0.00 | 0.00 | 0.00 | 99 | 1012.3 |
| 20260906095555 | 22 | 360 | 0.0 | 0.0 | 0.00 | 0.00 | 0.00 | 99 | 1012.3 |
| 20260906095055 | 22 | 360 | 0.0 | 0.0 | 0.00 | 0.00 | 0.00 | 99 | 1012.3 |
| 20260906094555 | 22 | 360 | 0.0 | 0.0 | 0.00 | 0.00 | 0.00 | 99 | 1012.3 |
| 20260906094056 | 22 | 360 | 0.0 | 0.0 | 0.00 | 0.00 | 0.00 | 99 | 1012.2 |
| 20260906093555 | 22 | 149 | 0.0 | 1.6 | 0.00 | 0.00 | 0.00 | 99 | 1012.1 |
| 20260906093056 | 22 | 360 | 0.0 | 0.0 | 0.00 | 0.00 | 0.00 | 99 | 1012.2 |
| 20260906092555 | 22 | 215 | 3.2 | 3.2 | 0.00 | 0.00 | 0.00 | 99 | 1012.1 |
| 20260906092055 | 22 | 360 | 0.0 | 0.0 | 0.00 | 0.00 | 0.00 | 99 | 1012.1 |
| 20260906091555 | 22 | 360 | 0.0 | 0.0 | 0.00 | 0.00 | 0.00 | 99 | 1012.1 |
| 20260906091055 | 22 | 360 | 0.0 | 0.0 | 0.00 | 0.00 | 0.00 | 99 | 1012.0 |
| 20260906090555 | 23 | 360 | 0.0 | 0.0 | 0.00 | 0.00 | 0.00 | 99 | 1012.0 |
| 20260906090056 | 23 | 165 | 1.6 | 3.2 | 0.00 | 0.00 | 0.00 | 99 | 1011.9 |
| 20260906085556 | 22 | 360 | 0.0 | 0.0 | 0.00 | 0.00 | 0.00 | 99 | 1011.9 |
| 20260906085056 | 23 | 360 | 0.0 | 0.0 | 0.00 | 0.00 | 0.00 | 99 | 1011.9 |
| 20260906084555 | 23 | 360 | 0.0 | 0.0 | 0.00 | 0.00 | 0.00 | 99 | 1011.8 |
| 20260906084055 | 23 | 192 | 0.0 | 1.6 | 0.00 | 0.00 | 0.00 | 99 | 1011.8 |
| 20260906083555 | 23 | 360 | 0.0 | 0.0 | 0.00 | 0.00 | 0.00 | 99 | 1011.8 |
| 20260906083055 | 23 | 360 | 0.0 | 0.0 | 0.00 | 0.00 | 0.00 | 99 | 1011.7 |
| 20260906082555 | 23 | 118 | 0.0 | 0.0 | 0.00 | 0.00 | 0.00 | 99 | 1011.7 |
| 20260906082055 | 23 | 360 | 0.0 | 0.0 | 0.00 | 0.00 | 0.00 | 99 | 1011.7 |
| 20260906081556 | 23 | 360 | 0.0 | 0.0 | 0.00 | 0.00 | 0.00 | 99 | 1011.7 |
| 20260906081055 | 23 | 360 | 0.0 | 0.0 | 0.00 | 0.00 | 0.00 | 99 | 1011.7 |
| 20260906080555 | 23 | 360 | 0.0 | 0.0 | 0.00 | 0.00 | 0.00 | 99 | 1011.6 |
| 20260906080055 | 23 | 170 | 0.0 | 3.2 | 0.00 | 0.00 | 0.00 | 99 | 1011.6 |
| 20260906075555 | 23 | 205 | 0.0 | 0.0 | 0.00 | 0.00 | 0.00 | 98 | 1011.7 |
| 20260906075055 | 23 | 360 | 0.0 | 0.0 | 0.00 | 0.00 | 0.00 | 98 | 1011.9 |
| 20260906074556 | 23 | 190 | 0.0 | 1.6 | 0.00 | 0.00 | 0.00 | 98 | 1011.8 |
| 20260906074055 | 23 | 144 | 0.0 | 0.0 | 0.00 | 0.00 | 0.00 | 99 | 1011.8 |
| 20260906073555 | 23 | 153 | 0.0 | 0.0 | 0.00 | 0.00 | 0.00 | 98 | 1011.7 |
| 20260906073055 | 23 | 148 | 3.2 | 4.8 | 0.00 | 0.00 | 0.00 | 98 | 1011.8 |
| 20260906072556 | 23 | 360 | 0.0 | 0.0 | 0.00 | 0.00 | 0.00 | 98 | 1011.9 |
| 20260906072057 | 23 | 132 | 0.0 | 1.6 | 0.00 | 0.00 | 0.00 | 98 | 1011.7 |
| 20260906071555 | 23 | 360 | 0.0 | 0.0 | 0.00 | 0.00 | 0.00 | 98 | 1011.8 |
| 20260906071057 | 23 | 360 | 0.0 | 0.0 | 0.00 | 0.00 | 0.00 | 98 | 1011.9 |
| 20260906070555 | 23 | 360 | 0.0 | 0.0 | 0.00 | 0.00 | 0.00 | 98 | 1012.0 |
| 20260906070055 | 23 | 360 | 0.0 | 0.0 | 0.00 | 0.00 | 0.00 | 98 | 1012.0 |
| 20260906065555 | 23 | 120 | 0.0 | 0.0 | 0.00 | 0.00 | 0.00 | 98 | 1012.0 |
| 20260906065055 | 23 | 167 | 0.0 | 0.0 | 0.00 | 0.00 | 0.00 | 98 | 1012.0 |
| 20260906064555 | 23 | 176 | 3.2 | 3.2 | 0.00 | 0.00 | 0.00 | 98 | 1012.0 |
| 20260906064055 | 23 | 131 | 0.0 | 0.0 | 0.00 | 0.00 | 0.00 | 98 | 1012.0 |
| 20260906063559 | 23 | 72 | 0.0 | 0.0 | 0.00 | 0.00 | 0.00 | 98 | 1012.0 |
| 20260906063055 | 23 | 345 | 0.0 | 0.0 | 0.00 | 0.00 | 0.00 | 98 | 1011.9 |
| 20260906062555 | 23 | 360 | 0.0 | 0.0 | 0.00 | 0.00 | 0.00 | 98 | 1011.9 |
| 20260906062055 | 23 | 148 | 0.0 | 0.0 | 0.00 | 0.00 | 0.00 | 98 | 1012.0 |
| 20260906061555 | 23 | 360 | 0.0 | 0.0 | 0.00 | 0.00 | 0.00 | 98 | 1012.0 |
| 20260906061055 | 23 | 360 | 0.0 | 0.0 | 0.00 | 0.00 | 0.00 | 98 | 1012.1 |
| 20260906060555 | 23 | 360 | 0.0 | 0.0 | 0.00 | 0.00 | 0.00 | 98 | 1012.3 |
| 20260906060055 | 23 | 360 | 0.0 | 0.0 | 0.00 | 0.00 | 0.00 | 98 | 1012.3 |
| 20260906055555 | 23 | 360 | 0.0 | 0.0 | 0.00 | 0.00 | 0.00 | 98 | 1012.3 |
| 20260906055056 | 23 | 147 | 3.2 | 4.8 | 0.00 | 0.00 | 0.00 | 98 | 1012.3 |
| 20260906054555 | 23 | 116 | 0.0 | 0.0 | 0.00 | 0.00 | 0.00 | 98 | 1012.4 |
| 20260906054055 | 23 | 70 | 1.6 | 3.2 | 0.00 | 0.00 | 0.00 | 98 | 1012.5 |
| 20260906053556 | 23 | 82 | 1.6 | 3.2 | 0.00 | 0.00 | 0.00 | 98 | 1012.3 |
| 20260906053056 | 24 | 228 | 1.6 | 3.2 | 0.00 | 0.00 | 0.00 | 98 | 1012.2 |
| 20260906052555 | 24 | 167 | 1.6 | 3.2 | 0.00 | 0.00 | 0.00 | 98 | 1012.3 |
| 20260906052055 | 24 | 360 | 0.0 | 0.0 | 0.00 | 0.00 | 0.00 | 98 | 1012.5 |
| 20260906051555 | 24 | 109 | 0.0 | 0.0 | 0.00 | 0.00 | 0.00 | 98 | 1012.5 |
| 20260906051055 | 24 | 360 | 0.0 | 0.0 | 0.00 | 0.00 | 0.00 | 98 | 1012.4 |
| 20260906050555 | 24 | 360 | 0.0 | 0.0 | 0.00 | 0.00 | 0.00 | 98 | 1012.4 |
| 20260906050056 | 24 | 234 | 0.0 | 0.0 | 0.00 | 0.00 | 0.00 | 98 | 1012.5 |
| 20260906045555 | 24 | 360 | 0.0 | 0.0 | 0.00 | 0.00 | 0.38 | 98 | 1012.5 |
| 20260906045055 | 24 | 360 | 0.0 | 0.0 | 0.00 | 0.00 | 0.38 | 98 | 1012.7 |
| 20260906044555 | 24 | 360 | 0.0 | 0.0 | 0.00 | 0.00 | 0.38 | 98 | 1012.7 |
| 20260906044056 | 24 | 360 | 0.0 | 0.0 | 0.00 | 0.00 | 0.38 | 98 | 1012.6 |
| 20260906043555 | 24 | 360 | 0.0 | 0.0 | 0.00 | 0.00 | 0.38 | 98 | 1012.5 |
| 20260906043055 | 24 | 126 | 0.0 | 1.6 | 0.00 | 0.00 | 0.38 | 98 | 1012.5 |
| 20260906042555 | 24 | 190 | 3.2 | 3.2 | 0.00 | 0.00 | 0.38 | 98 | 1012.5 |
| 20260906042056 | 24 | 178 | 4.8 | 6.4 | 0.00 | 0.00 | 0.38 | 98 | 1012.6 |
| 20260906041555 | 25 | 190 | 1.6 | 3.2 | 0.00 | 0.00 | 0.38 | 98 | 1012.7 |
| 20260906041055 | 25 | 190 | 3.2 | 4.8 | 0.00 | 0.00 | 0.38 | 97 | 1012.7 |
| 20260906040555 | 25 | 360 | 0.0 | 0.0 | 0.00 | 0.00 | 0.38 | 97 | 1012.9 |
| 20260906040056 | 25 | 360 | 0.0 | 0.0 | 0.00 | 0.00 | 0.38 | 97 | 1013.0 |
| 20260906035557 | 25 | 176 | 0.0 | 1.6 | 0.00 | 0.00 | 0.38 | 97 | 1013.0 |
| 20260906035056 | 25 | 360 | 0.0 | 0.0 | 0.00 | 0.00 | 0.38 | 97 | 1013.1 |
| 20260906034555 | 25 | 211 | 1.6 | 3.2 | 0.00 | 0.00 | 0.38 | 97 | 1013.1 |
| 20260906034055 | 25 | 188 | 3.2 | 4.8 | 0.00 | 0.00 | 0.38 | 97 | 1013.1 |
| 20260906033556 | 25 | 174 | 1.6 | 3.2 | 0.00 | 0.00 | 0.38 | 97 | 1013.2 |
| 20260906033056 | 25 | 168 | 3.2 | 4.8 | 0.00 | 0.00 | 0.38 | 97 | 1013.2 |
| 20260906032555 | 25 | 150 | 1.6 | 3.2 | 0.00 | 0.00 | 0.38 | 97 | 1013.3 |
| 20260906032055 | 25 | 175 | 3.2 | 4.8 | 0.00 | 0.00 | 0.38 | 97 | 1013.3 |
| 20260906031555 | 25 | 360 | 0.0 | 0.0 | 0.00 | 0.00 | 0.38 | 97 | 1013.3 |
| 20260906031057 | 25 | 135 | 0.0 | 1.6 | 0.00 | 0.00 | 0.38 | 97 | 1013.4 |
| 20260906030556 | 25 | 360 | 0.0 | 0.0 | 0.00 | 0.00 | 0.38 | 97 | 1013.5 |
| 20260906030055 | 25 | 360 | 0.0 | 0.0 | 0.00 | 0.00 | 0.38 | 97 | 1013.6 |
| 20260906025555 | 25 | 64 | 0.0 | 1.6 | 0.00 | 0.00 | 0.38 | 97 | 1013.6 |
| 20260906025055 | 25 | 360 | 0.0 | 0.0 | 0.00 | 0.00 | 0.38 | 96 | 1013.6 |
| 20260906024556 | 25 | 360 | 0.0 | 0.0 | 0.00 | 0.00 | 0.38 | 96 | 1013.4 |
| 20260906024055 | 25 | 176 | 0.0 | 1.6 | 0.00 | 0.00 | 0.38 | 96 | 1013.3 |
| 20260906023555 | 25 | 360 | 0.0 | 0.0 | 0.00 | 0.00 | 0.38 | 96 | 1013.3 |
| 20260906023056 | 25 | 360 | 0.0 | 0.0 | 0.00 | 0.00 | 0.38 | 96 | 1013.3 |
| 20260906022555 | 25 | 360 | 0.0 | 0.0 | 0.00 | 0.00 | 0.38 | 96 | 1013.2 |
| 20260906022055 | 25 | 194 | 0.0 | 1.6 | 0.00 | 0.00 | 0.38 | 96 | 1013.1 |
| 20260906021555 | 25 | 360 | 0.0 | 0.0 | 0.00 | 0.00 | 0.38 | 96 | 1013.0 |
| 20260906021055 | 25 | 360 | 0.0 | 0.0 | 0.00 | 0.00 | 0.38 | 96 | 1012.9 |
| 20260906020555 | 25 | 360 | 0.0 | 0.0 | 0.00 | 0.00 | 0.38 | 96 | 1012.8 |
| 20260906020056 | 25 | 360 | 0.0 | 0.0 | 0.00 | 0.00 | 0.38 | 96 | 1012.6 |
| 20260906015555 | 25 | 204 | 0.0 | 3.2 | 0.00 | 0.00 | 0.38 | 96 | 1012.5 |
| 20260906015055 | 25 | 204 | 1.6 | 3.2 | 0.00 | 0.00 | 0.38 | 96 | 1012.4 |
| 20260906014555 | 25 | 90 | 0.0 | 0.0 | 0.00 | 0.00 | 0.38 | 96 | 1012.4 |
| 20260906014056 | 25 | 158 | 1.6 | 3.2 | 0.00 | 0.00 | 0.38 | 96 | 1012.2 |
| 20260906013555 | 25 | 180 | 1.6 | 4.8 | 0.00 | 0.00 | 0.38 | 95 | 1012.0 |
| 20260906013055 | 25 | 148 | 0.0 | 1.6 | 0.00 | 0.00 | 0.38 | 95 | 1011.9 |
| 20260906012555 | 25 | 126 | 0.0 | 3.2 | 0.00 | 0.00 | 0.38 | 95 | 1012.0 |
| 20260906012057 | 25 | 190 | 1.6 | 3.2 | 0.00 | 0.00 | 0.38 | 95 | 1011.9 |
| 20260906011555 | 25 | 186 | 0.0 | 3.2 | 0.00 | 0.00 | 0.38 | 95 | 1011.8 |
| 20260906011055 | 25 | 212 | 3.2 | 4.8 | 0.00 | 0.00 | 0.38 | 95 | 1011.6 |
| 20260906010555 | 25 | 220 | 3.2 | 4.8 | 0.00 | 0.00 | 0.38 | 95 | 1011.6 |
| 20260906010055 | 25 | 219 | 3.2 | 4.8 | 0.00 | 0.00 | 0.38 | 95 | 1011.6 |
| 20260906005556 | 26 | 206 | 3.2 | 4.8 | 0.00 | 0.00 | 0.38 | 94 | 1011.6 |
| 20260906005055 | 26 | 198 | 3.2 | 4.8 | 0.00 | 0.00 | 0.38 | 94 | 1011.6 |
| 20260906004556 | 26 | 199 | 1.6 | 3.2 | 0.00 | 0.00 | 0.38 | 93 | 1011.6 |
| 20260906004055 | 26 | 186 | 1.6 | 4.8 | 0.00 | 0.00 | 0.38 | 93 | 1011.7 |
| 20260906003555 | 26 | 164 | 0.0 | 3.2 | 0.00 | 0.00 | 0.38 | 92 | 1011.7 |
| 20260906003055 | 26 | 360 | 0.0 | 0.0 | 0.00 | 0.00 | 0.38 | 92 | 1011.8 |
| 20260906002556 | 26 | 360 | 0.0 | 0.0 | 0.00 | 0.00 | 0.38 | 91 | 1011.8 |
| 20260906002056 | 27 | 79 | 0.0 | 1.6 | 0.00 | 0.00 | 0.38 | 91 | 1011.7 |
| 20260906001555 | 27 | 360 | 0.0 | 0.0 | 0.00 | 0.00 | 0.38 | 90 | 1011.7 |
| 20260906001055 | 27 | 360 | 0.0 | 0.0 | 0.00 | 0.00 | 0.38 | 90 | 1011.7 |
| 20260906000555 | 27 | 360 | 0.0 | 0.0 | 0.00 | 0.00 | 0.38 | 89 | 1011.7 |
| 20260906000055 | 27 | 130 | 0.0 | 3.2 | 0.00 | 0.00 | 0.38 | 89 | 1011.7 |
| 20260905235556 | 28 | 360 | 0.0 | 0.0 | 0.00 | 0.00 | 0.38 | 88 | 1011.7 |
| 20260905235055 | 28 | 193 | 0.0 | 1.6 | 0.00 | 0.00 | 0.38 | 86 | 1011.7 |
| 20260905234555 | 28 | 238 | 0.0 | 1.6 | 0.00 | 0.00 | 0.38 | 86 | 1011.6 |
| 20260905234055 | 28 | 200 | 3.2 | 6.4 | 0.00 | 0.00 | 0.38 | 85 | 1011.5 |
| 20260905233555 | 28 | 206 | 3.2 | 8.0 | 0.00 | 0.00 | 0.38 | 84 | 1011.5 |
| 20260905233055 | 29 | 216 | 4.8 | 6.4 | 0.00 | 0.00 | 0.38 | 82 | 1011.6 |
| 20260905232555 | 29 | 212 | 6.4 | 9.7 | 0.00 | 0.00 | 0.38 | 81 | 1011.6 |
| 20260905232055 | 30 | 211 | 6.4 | 6.4 | 0.00 | 0.00 | 0.38 | 80 | 1011.6 |
| 20260905231555 | 30 | 226 | 6.4 | 9.7 | 0.00 | 0.00 | 0.38 | 81 | 1011.7 |
| 20260905231056 | 30 | 199 | 4.8 | 6.4 | 0.00 | 0.00 | 0.38 | 81 | 1011.8 |
| 20260905230555 | 30 | 203 | 6.4 | 8.0 | 0.00 | 0.00 | 0.38 | 80 | 1011.9 |
| 20260905230055 | 30 | 217 | 4.8 | 6.4 | 0.00 | 0.00 | 0.38 | 81 | 1011.9 |
| 20260905225555 | 30 | 228 | 6.4 | 9.7 | 0.00 | 0.00 | 0.38 | 81 | 1011.8 |
| 20260905225055 | 30 | 231 | 4.8 | 8.0 | 0.00 | 0.00 | 0.38 | 80 | 1011.7 |
| 20260905224555 | 31 | 203 | 4.8 | 6.4 | 0.00 | 0.00 | 0.38 | 79 | 1011.7 |
| 20260905224055 | 31 | 220 | 4.8 | 6.4 | 0.00 | 0.00 | 0.38 | 78 | 1011.8 |
| 20260905223556 | 32 | 218 | 4.8 | 6.4 | 0.00 | 0.00 | 0.38 | 75 | 1011.7 |
| 20260905223055 | 32 | 231 | 4.8 | 6.4 | 0.00 | 0.00 | 0.38 | 71 | 1011.7 |
| 20260905222556 | 32 | 7 | 0.0 | 1.6 | 0.00 | 0.00 | 0.38 | 69 | 1011.8 |
| 20260905222055 | 32 | 216 | 3.2 | 4.8 | 0.00 | 0.00 | 0.38 | 71 | 1011.8 |
| 20260905221556 | 32 | 218 | 3.2 | 6.4 | 0.00 | 0.00 | 0.38 | 71 | 1011.8 |
| 20260905221055 | 32 | 246 | 0.0 | 1.6 | 0.00 | 0.00 | 0.38 | 68 | 1011.8 |
| 20260905220556 | 32 | 236 | 3.2 | 6.4 | 0.00 | 0.00 | 0.38 | 69 | 1011.9 |
| 20260905220055 | 32 | 232 | 1.6 | 3.2 | 0.00 | 0.00 | 0.38 | 70 | 1012.0 |
| 20260905215556 | 32 | 166 | 1.6 | 9.7 | 0.00 | 0.00 | 0.38 | 72 | 1012.0 |
| 20260905215055 | 32 | 220 | 4.8 | 6.4 | 0.00 | 0.00 | 0.38 | 71 | 1012.0 |
| 20260905214555 | 32 | 144 | 1.6 | 4.8 | 0.00 | 0.00 | 0.38 | 69 | 1012.0 |
| 20260905214058 | 32 | 174 | 4.8 | 8.0 | 0.00 | 0.00 | 0.38 | 71 | 1011.9 |
| 20260905213555 | 32 | 205 | 1.6 | 3.2 | 0.00 | 0.00 | 0.38 | 70 | 1011.9 |
| 20260905213055 | 32 | 220 | 3.2 | 4.8 | 0.00 | 0.00 | 0.38 | 71 | 1011.9 |
| 20260905212556 | 32 | 231 | 1.6 | 4.8 | 0.00 | 0.00 | 0.38 | 69 | 1011.9 |
| 20260905212055 | 32 | 113 | 0.0 | 3.2 | 0.00 | 0.00 | 0.38 | 72 | 1011.8 |
| 20260905211555 | 31 | 174 | 4.8 | 6.4 | 0.00 | 0.00 | 0.38 | 71 | 1011.9 |
| 20260905211055 | 31 | 121 | 1.6 | 3.2 | 0.00 | 0.00 | 0.38 | 71 | 1011.8 |
| 20260905210556 | 31 | 216 | 1.6 | 3.2 | 0.00 | 0.00 | 0.38 | 75 | 1011.9 |
| 20260905210055 | 31 | 248 | 3.2 | 4.8 | 0.00 | 0.00 | 0.38 | 77 | 1012.0 |
| 20260905205555 | 31 | 236 | 1.6 | 4.8 | 0.00 | 0.00 | 0.38 | 77 | 1012.0 |
| 20260905205055 | 31 | 230 | 1.6 | 3.2 | 0.00 | 0.00 | 0.38 | 75 | 1012.1 |
| 20260905204555 | 31 | 69 | 0.0 | 1.6 | 0.00 | 0.00 | 0.38 | 76 | 1012.1 |
| 20260905204055 | 30 | 40 | 1.6 | 3.2 | 0.00 | 0.00 | 0.38 | 79 | 1012.1 |
| 20260905203555 | 30 | 68 | 3.2 | 4.8 | 0.00 | 0.00 | 0.38 | 79 | 1012.3 |
| 20260905203055 | 30 | 51 | 3.2 | 4.8 | 0.00 | 0.00 | 0.38 | 80 | 1012.4 |
| 20260905202555 | 30 | 91 | 0.0 | 3.2 | 0.00 | 0.00 | 0.38 | 82 | 1012.6 |
| 20260905202059 | 30 | 290 | 1.6 | 3.2 | 0.00 | 0.00 | 0.38 | 84 | 1012.6 |
| 20260905201556 | 30 | 124 | 1.6 | 4.8 | 0.00 | 0.00 | 0.38 | 84 | 1012.6 |
| 20260905201056 | 30 | 79 | 1.6 | 3.2 | 0.00 | 0.00 | 0.38 | 83 | 1012.6 |
| 20260905200556 | 29 | 229 | 1.6 | 4.8 | 0.00 | 0.00 | 0.38 | 86 | 1012.6 |
| 20260905200056 | 28 | 360 | 0.0 | 0.0 | 0.00 | 0.00 | 0.23 | 87 | 1012.6 |
| 20260905195555 | 28 | 208 | 0.0 | 1.6 | 0.00 | 0.00 | 0.23 | 89 | 1012.8 |
| 20260905195055 | 28 | 147 | 4.8 | 8.0 | 0.00 | 0.00 | 0.23 | 90 | 1013.0 |
| 20260905194556 | 28 | 137 | 0.0 | 3.2 | 0.00 | 0.00 | 0.23 | 90 | 1013.1 |
| 20260905194056 | 28 | 141 | 1.6 | 3.2 | 0.00 | 0.00 | 0.23 | 91 | 1013.2 |
| 20260905193555 | 28 | 26 | 1.6 | 4.8 | 0.00 | 0.00 | 0.23 | 91 | 1013.4 |
| 20260905193055 | 27 | 125 | 1.6 | 4.8 | 0.00 | 0.00 | 0.23 | 91 | 1013.6 |
| 20260905192555 | 27 | 94 | 1.6 | 3.2 | 0.00 | 0.00 | 0.23 | 92 | 1013.7 |
| 20260905192055 | 27 | 88 | 1.6 | 3.2 | 0.00 | 0.00 | 0.36 | 92 | 1013.7 |
| 20260905191555 | 27 | 358 | 4.8 | 9.7 | 0.00 | 0.00 | 0.36 | 90 | 1013.7 |
| 20260905191055 | 27 | 276 | 0.0 | 1.6 | 0.00 | 0.00 | 0.36 | 92 | 1013.7 |
| 20260905190556 | 27 | 27 | 1.6 | 3.2 | 0.00 | 0.00 | 0.36 | 93 | 1013.9 |
| 20260905190056 | 27 | 8 | 3.2 | 6.4 | 0.00 | 0.00 | 0.36 | 93 | 1013.9 |
| 20260905185555 | 26 | 149 | 0.0 | 1.6 | 0.00 | 0.00 | 0.36 | 94 | 1014.0 |
| 20260905185055 | 26 | 36 | 0.0 | 3.2 | 0.00 | 0.00 | 0.33 | 96 | 1014.2 |
| 20260905184557 | 26 | 6 | 3.2 | 6.4 | 0.00 | 0.00 | 0.33 | 96 | 1014.3 |
| 20260905184055 | 26 | 41 | 0.0 | 3.2 | 0.00 | 0.00 | 0.33 | 96 | 1014.3 |
| 20260905183556 | 26 | 16 | 3.2 | 6.4 | 0.00 | 0.00 | 0.25 | 97 | 1014.2 |
| 20260905183056 | 26 | 17 | 4.8 | 8.0 | 0.00 | 0.00 | 0.25 | 96 | 1014.3 |
| 20260905182555 | 26 | 33 | 1.6 | 3.2 | 0.03 | 0.00 | 0.25 | 95 | 1014.6 |
| 20260905182055 | 26 | 18 | 3.2 | 4.8 | 0.00 | 0.00 | 0.15 | 94 | 1014.6 |
| 20260905181555 | 26 | 1 | 3.2 | 6.4 | 0.00 | 0.00 | 0.15 | 94 | 1014.6 |
| 20260905181056 | 26 | 241 | 4.8 | 9.7 | 0.10 | 0.00 | 0.15 | 93 | 1014.7 |
| 20260905180555 | 27 | 175 | 3.2 | 3.2 | 0.00 | 0.00 | 0.13 | 94 | 1014.7 |
| 20260905180055 | 27 | 258 | 8.0 | 12.9 | 0.00 | 0.00 | 0.13 | 94 | 1014.8 |
| 20260905175555 | 27 | 264 | 4.8 | 6.4 | 0.00 | 0.00 | 0.13 | 95 | 1014.8 |
| 20260905175056 | 27 | 253 | 4.8 | 6.4 | 0.00 | 0.00 | 0.10 | 95 | 1014.7 |
| 20260905174555 | 27 | 234 | 4.8 | 6.4 | 0.00 | 0.00 | 0.10 | 96 | 1014.7 |
| 20260905174055 | 27 | 207 | 4.8 | 6.4 | 0.00 | 0.00 | 0.03 | 95 | 1014.7 |
| 20260905173555 | 27 | 241 | 3.2 | 6.4 | 0.08 | 0.00 | 0.03 | 95 | 1014.7 |
| 20260905173057 | 27 | 206 | 4.8 | 6.4 | 0.15 | 0.00 | 0.03 | 94 | 1014.7 |
| 20260905172557 | 27 | 190 | 4.8 | 6.4 | 0.15 | 0.00 | 0.00 | 92 | 1014.8 |
| 20260905172056 | 27 | 225 | 4.8 | 6.4 | 0.00 | 0.00 | 0.00 | 92 | 1014.9 |
| 20260905171556 | 27 | 226 | 3.2 | 4.8 | 0.00 | 0.00 | 0.00 | 93 | 1014.9 |
| 20260905171055 | 27 | 253 | 3.2 | 4.8 | 0.00 | 0.00 | 0.00 | 93 | 1014.9 |
| 20260905170558 | 28 | 248 | 4.8 | 8.0 | 0.00 | 0.00 | 0.00 | 92 | 1015.0 |
| 20260905170056 | 29 | 246 | 3.2 | 6.4 | 0.00 | 0.00 | 0.00 | 92 | 1015.0 |
| 20260905165556 | 30 | 235 | 1.6 | 4.8 | 0.00 | 0.00 | 0.00 | 85 | 1015.0 |
| 20260905165056 | 31 | 276 | 6.4 | 9.7 | 0.00 | 0.00 | 0.00 | 81 | 1014.9 |
| 20260905164555 | 30 | 36 | 3.2 | 6.4 | 0.00 | 0.00 | 0.00 | 79 | 1015.0 |
| 20260905164055 | 30 | 31 | 3.2 | 6.4 | 0.00 | 0.00 | 0.00 | 81 | 1015.0 |
| 20260905163555 | 30 | 24 | 3.2 | 6.4 | 0.00 | 0.00 | 0.00 | 84 | 1015.1 |
| 20260905163057 | 30 | 14 | 3.2 | 8.0 | 0.00 | 0.00 | 0.00 | 82 | 1015.1 |
| 20260905162555 | 30 | 24 | 3.2 | 6.4 | 0.00 | 0.00 | 0.00 | 84 | 1015.1 |
| 20260905162056 | 30 | 62 | 1.6 | 4.8 | 0.00 | 0.00 | 0.00 | 82 | 1015.2 |